{"data":{"norad_id":49198,"intl_designator":"2021-083N","name":"ONEWEB-0331","alt_names":[],"object_type":"PAYLOAD","status":"ACTIVE","operator":null,"country":"UK","launch_date":"2021-09-14","launch_site_code":"TYMSC","launch_vehicle":null,"mission":null,"orbit_class":"UNKNOWN","rcs_meters":null,"size_class":null,"mass_kg":null,"dimensions":null,"purposes":["comms"],"wikipedia_slug":null,"has_3d_model":false,"image_url":null,"decayed_at":null,"tle_current":{"epoch":"2026-09-19T22:00:09.632160Z","epoch_age_seconds":72416,"freshness":"FRESH","line1":"1 49198U 21083N   26262.91677815 -.00000001  00000+0 -35092-4 0  9992","line2":"2 49198  87.9166 316.6315 0002151 104.6874 255.4496 13.18686202242497","mean_motion":13.18686202,"eccentricity":0.0002151,"inclination_deg":87.9166,"raan_deg":316.6315,"arg_perigee_deg":104.6874,"mean_anomaly_deg":255.4496,"bstar":-3.5092e-5,"rev_number":24249,"period_min":109.19959561388,"perigee_km":1188.114503172,"apogee_km":1191.3702048701,"semimajor_km":7567.8793540211,"source":"CELESTRAK","updated_at":"2026-09-20T09:00:44.662850Z"}}}